Regional Weather Roundup
Issued by NWS

Home | Current Version | Previous Version | Graphics & Text | Print | Product List | Glossary On
Versions: 1 2 3 4 5 6 7 8 9 10 11 12 13 14 15 16 17 18 19 20 21 22 23 24 25 26 27 28 29 30 31 32 33 34 35 36 37 38 39 40 41 42 43 44 45 46 47 48 49 50
000
ASUS44 KMEG 020100
RWRTN
TENNESSEE HOURLY STATE WEATHER ROUNDUP
NATIONAL WEATHER SERVICE MEMPHIS TN
800 PM CDT MON JUN 01 2015

TNZ002-004-019-021-049-052-054-088>092-020200-
WEST TENNESSEE

CITY           SKY/WX    TMP DP  RH WIND       PRES   REMARKS
MEMPHIS INTL   PTCLDY    69  58  67 N8        30.08R
NWS MEMPHIS      N/A     69 N/A N/A MISG        N/A
JACKSON        CLOUDY    69  62  78 N6        30.07R
DYERSBURG      MOCLDY    66  48  52 N9        30.09S
PARIS          CLOUDY    63  59  88 N8        30.09S
LEXINGTON      CLOUDY    66  63  88 NW3       30.06S
$$

TNZ008-025-027-028-033-062-065-066-020200-
NORTH MIDDLE TENNESSEE

CITY           SKY/WX    TMP DP  RH WIND       PRES   REMARKS
NASHVILLE      LGT RAIN  65  62  90 N8        30.06S FOG
CLARKSVILLE    CLOUDY    63  59  87 N7        30.08R
COOKEVILLE     MOCLDY    70  66  88 CALM      30.04R
CROSSVILLE     PTCLDY    68  62  81 N6        30.06S
$$

TNZ061-075-076-078-094-096-097-020200-
SOUTH MIDDLE TENNESSEE

CITY           SKY/WX    TMP DP  RH WIND       PRES   REMARKS
FAYETTEVILLE   PTCLDY   N/A N/A N/A MISG      30.04R
TULLAHOMA      CLOUDY    66  63  88 NW7       30.06R
WINCHESTER     CLOUDY    66  63  88 S3        30.05R
MCMINNVILLE    CLOUDY    68  68 100 NW3       30.05S
COLUMBIA       CLOUDY    66  64  94 NW3       30.04S
SHELBYVILLE    CLOUDY    70  64  83 NW9       30.05F
$$

TNZ017-018-042-046-047-020200-
NORTHEAST TENNESSEE

CITY           SKY/WX    TMP DP  RH WIND       PRES   REMARKS
TRI CITIES     CLOUDY    65  63  93 CALM      30.06S
ELIZABETHTON   CLOUDY    63  63 100 CALM      30.07S
$$

TNZ012-013-036-069-073-074-020200-
CENTRAL EAST TENNESSEE

CITY           SKY/WX    TMP DP  RH WIND       PRES   REMARKS
KNOXVILLE      CLOUDY    69  57  65 NE6       30.01F
OAK RIDGE      CLOUDY    67  64  90 CALM      30.04R
GATLINBURG     MOCLDY    72  61  68 CALM      30.02F
$$

TNZ083-085-099-020200-
SOUTHEAST TENNESSEE

CITY           SKY/WX    TMP DP  RH WIND       PRES   REMARKS
CHATTANOOGA    MOCLDY    76  66  71 S3        30.00S
$$

SKY/WX REPORTED AS FAIR MEANS FEW OR NO CLOUDS BELOW
12 THOUSAND FEET.



USA.gov is the U.S. government's official web portal to all federal, state and local government web resources and services.